Temp
62 62 62 62 62 62 62 62 62 62 62 62 62 62 62 62 63 65 59 61 63 65 64 64 65 64 64 61 61 61 56 54 55 53 59 57 57 59 60 60 60 63 62 60 63
61 61 61 62 62 62 62 62 62 61 61 62 61 62 62 61 63 59 63 65 65 64 63 62 60 61 61 58 59 59 54 56 58 59 57 57 57 59 57 58 58 60 58 57 58
60 60 61 61 61 62 62 62 61 61 61 61 61 61 61 62 59 57 64 65 65 63 62 61 61 60 57 58 56 55 54 55 57 58 57 56 54 59 57 57 62 62 63 56 57
60 60 60 60 61 61 62 61 61 61 61 61 61 61 61 61 52 60 64 64 64 64 62 60 59 56 55 53 55 51 55 54 55 54 53 53 56 55 57 65 62 65 63 58 56
60 59 60 60 61 61 61 61 61 61 61 61 60 61 61 58 55 63 62 62 63 62 58 57 56 55 52 53 52 50 53 52 55 52 53 53 53 54 55 64 63 59 56 58 59
60 60 60 60 61 61 61 60 61 61 61 60 61 60 60 54 61 63 61 61 61 61 57 58 55 55 53 51 51 51 51 52 54 54 53 49 53 50 60 59 60 59 58 58 58
59 59 58 59 59 59 59 60 60 60 60 61 61 61 57 55 62 63 62 59 60 59 56 56 57 54 53 49 51 49 46 52 53 50 50 49 47 47 60 56 56 56 58 58 57
58 57 58 58 58 58 58 60 60 60 60 61 60 60 54 60 64 61 61 59 61 61 58 58 58 54 52 51 49 46 46 46 47 47 47 48 49 58 54 54 55 58 59 56 56
57 57 57 57 57 58 59 59 59 60 61 60 59 57 51 61 57 59 60 56 57 58 58 59 56 50 50 47 46 45 44 43 47 47 46 45 48 55 52 51 55 57 58 56 56
56 56 57 57 57 59 58 59 59 59 59 60 59 53 53 51 55 56 59 58 54 53 52 52 51 48 47 46 37 42 41 43 42 46 44 44 44 52 57 56 54 57 58 57 54
56 56 56 57 57 58 58 58 55 52 54 51 50 49 51 54 57 53 55 54 53 51 46 46 44 43 47 46 44 42 40 40 46 48 41 45 45 49 53 55 53 54 53 53 51
56 56 57 57 57 57 56 54 52 52 48 49 50 50 53 54 47 49 55 48 47 44 44 43 42 43 43 42 41 41 38 39 45 42 40 43 41 47 51 51 49 47 47 45 43
55 56 56 57 56 55 54 52 53 53 48 45 48 48 49 51 45 45 50 47 45 42 42 41 42 43 41 42 38 40 37 39 37 41 40 38 42 43 46 44 44 44 44 43 42
55 55 55 56 52 53 50 51 52 52 42 41 43 46 48 49 43 48 49 47 43 41 40 41 42 40 40 38 40 32 38 37 35 34 33 37 30 46 48 45 44 44 44 43 42
54 55 54 55 52 50 50 51 52 50 30 42 42 52 47 45 44 44 49 47 42 41 40 39 39 38 35 37 39 34 38 36 34 31 28 33 29 44 42 42 43 44 42 42 39
53 54 53 53 51 48 50 51 50 37 28 37 42 41 42 43 41 44 44 48 45 40 39 39 42 39 38 38 38 38 35 35 31 30 24 26 30 41 40 37 42 44 42 38 38
53 53 51 52 49 49 49 49 35 30 39 35 37 41 40 37 38 40 39 38 37 32 31 36 36 37 37 34 38 34 33 28 25 24 26 26 27 39 39 38 37 38 40 36 36
52 53 50 50 50 49 49 42 28 30 31 39 39 39 37 36 35 36 36 35 35 33 33 28 29 33 34 31 30 31 30 27 21 24 26 27 25 36 37 34 31 32 30 36 38
52 49 48 48 49 48 45 31 32 32 38 36 37 33 32 35 36 36 35 35 35 35 30 28 28 33 32 33 33 29 27 30 24 18 20 31 34 38 39 35 34 34 36 38 37
46 46 46 50 48 46 36 33 32 37 38 37 32 32 30 31 31 31 31 36 34 36 37 29 26 32 30 32 33 31 33 24 26 19 19 29 27 35 34 34 37 35 37 36 36
45 40 45 48 46 41 32 31 31 38 39 34 30 31 31 30 33 30 30 34 36 34 37 33 29 28 28 26 28 26 27 27 26 23 22 21 31 33 33 32 31 33 34 33 32
44 33 45 47 36 33 31 31 37 33 35 34 36 35 31 30 29 30 29 32 37 35 30 33 29 24 27 27 30 30 29 29 24 20 21 20 28 30 29 27 26 30 33 33 32
39 40 47 45 31 30 32 32 35 32 32 34 33 35 32 29 27 30 32 34 36 33 31 32 28 23 23 24 27 26 27 27 24 23 21 23 30 26 25 32 35 30 33 33 30
39 32 36 39 37 33 30 29 29 36 35 37 35 34 30 28 30 28 30 32 33 33 35 34 28 25 26 27 29 24 25 25 25 21 23 24 27 32 31 32 34 34 32 29 28
39 32 31 30 32 34 34 32 30 27 34 37 32 32 31 25 24 26 31 31 32 34 33 31 23 21 24 26 26 26 26 24 22 26 23 24 18 28 31 32 29 26 27 29 30
35 33 31 30 32 33 35 32 32 29 32 30 29 32 31 27 31 24 31 31 31 31 30 31 25 21 20 22 22 23 26 26 25 26 21 23 22 29 29 27 30 31 29 27 28
42 38 37 31 29 31 34 33 33 33 34 38 36 32 29 32 35 34 35 34 35 30 29 27 25 22 20 20 21 20 24 23 23 19 25 22 30 27 28 29 31 29 28 27 28
MSLP
1019.85 1019.72 1019.63 1019.42 1019.44 1019.20 1018.97 1018.80 1018.74 1018.51 1018.35 1018.22 1018.06 1017.96 1017.88 1017.64 1017.38 1017.22 1017.20 1017.72 1017.52 1017.27 1017.08 1016.92 1016.63 1016.52 1016.37 1016.30 1016.36 1016.10 1014.70 1013.17 1013.11 1013.12 1012.84 1013.93 1013.99 1014.29 1014.57 1014.25 1014.46 1014.54 1014.83 1015.77 1016.30
1019.80 1019.71 1019.65 1019.49 1019.41 1019.23 1018.96 1018.63 1018.55 1018.42 1018.15 1018.13 1017.94 1017.95 1017.78 1017.68 1017.31 1017.39 1017.94 1017.61 1017.34 1017.27 1017.00 1016.70 1016.54 1016.44 1016.07 1016.30 1016.30 1015.73 1014.60 1013.48 1013.75 1013.72 1013.71 1014.21 1014.41 1014.25 1014.39 1014.17 1014.19 1014.55 1015.51 1016.40 1016.88
1019.81 1019.64 1019.58 1019.42 1019.30 1019.10 1018.89 1018.66 1018.35 1018.19 1018.13 1017.96 1017.83 1017.64 1017.74 1017.71 1017.35 1017.63 1017.92 1017.60 1017.37 1017.34 1017.22 1017.02 1016.74 1016.40 1016.13 1016.21 1016.27 1016.00 1014.71 1014.62 1014.40 1014.65 1014.81 1014.72 1014.73 1014.55 1014.11 1013.32 1012.97 1013.18 1014.21 1015.84 1016.52
1019.82 1019.62 1019.50 1019.40 1019.17 1019.00 1018.74 1018.55 1018.27 1018.06 1017.95 1017.87 1017.65 1017.54 1017.50 1017.42 1018.05 1017.85 1017.82 1017.80 1017.51 1017.28 1017.11 1017.00 1016.75 1016.31 1016.07 1015.96 1016.27 1016.20 1015.33 1015.46 1015.22 1015.41 1015.45 1015.18 1015.02 1014.57 1014.09 1012.29 1013.18 1013.40 1014.06 1015.09 1015.73
1019.45 1019.44 1019.44 1019.34 1019.10 1018.91 1018.69 1018.49 1018.13 1018.04 1017.88 1017.72 1017.63 1017.54 1017.30 1017.25 1017.74 1018.03 1017.93 1017.83 1017.63 1017.35 1017.17 1017.01 1016.73 1016.49 1016.25 1016.35 1016.49 1016.17 1015.64 1015.75 1015.65 1015.82 1015.64 1015.60 1015.08 1014.84 1013.58 1012.87 1013.52 1014.03 1014.55 1014.74 1015.09
1019.27 1019.13 1018.99 1019.10 1019.10 1018.83 1018.63 1018.40 1018.10 1017.80 1017.81 1017.74 1017.64 1017.46 1017.24 1017.49 1017.84 1017.88 1017.78 1017.85 1017.79 1017.50 1017.50 1017.37 1017.08 1017.01 1016.72 1016.68 1016.70 1016.45 1016.14 1015.73 1015.49 1015.48 1015.55 1015.35 1014.92 1015.13 1012.62 1012.97 1013.02 1013.52 1013.87 1014.35 1014.71
1019.10 1019.11 1018.83 1018.86 1018.87 1018.88 1018.62 1018.25 1017.92 1017.65 1017.65 1017.74 1017.69 1017.56 1017.34 1017.91 1017.80 1017.91 1017.73 1017.85 1017.94 1017.85 1017.56 1017.78 1017.67 1017.42 1017.16 1016.98 1017.09 1016.83 1016.20 1015.32 1014.97 1015.44 1015.52 1015.55 1014.73 1013.41 1012.47 1013.04 1012.92 1013.09 1013.39 1013.89 1014.46
1018.99 1019.20 1019.08 1018.72 1018.73 1018.61 1018.44 1018.13 1017.85 1017.70 1017.52 1017.69 1017.77 1017.55 1017.63 1017.99 1017.92 1017.88 1017.85 1017.92 1018.04 1017.89 1017.98 1018.05 1017.91 1017.61 1017.40 1017.46 1017.09 1016.64 1016.27 1015.16 1015.10 1015.55 1015.88 1015.76 1012.85 1012.32 1012.69 1012.71 1012.55 1012.56 1012.80 1013.53 1014.15
1019.06 1019.03 1019.24 1018.70 1018.52 1018.45 1018.19 1017.91 1017.76 1017.70 1017.60 1017.58 1017.72 1017.65 1017.84 1018.18 1018.20 1018.11 1017.90 1018.01 1018.17 1018.25 1018.17 1018.16 1017.94 1017.86 1017.72 1017.18 1016.66 1016.28 1015.13 1015.15 1014.89 1015.52 1015.74 1015.51 1013.08 1012.24 1012.82 1012.79 1012.32 1012.36 1012.73 1013.27 1013.95
1018.82 1019.05 1019.06 1018.74 1018.37 1018.15 1018.01 1017.71 1017.62 1017.77 1017.76 1017.64 1017.75 1018.19 1018.36 1018.16 1018.31 1018.34 1018.16 1018.15 1018.20 1018.33 1018.35 1018.15 1018.02 1017.65 1017.50 1017.01 1016.23 1015.71 1015.67 1015.36 1015.42 1015.70 1015.68 1014.96 1013.38 1012.63 1011.89 1012.09 1011.84 1011.89 1012.41 1013.20 1013.89
1018.89 1018.94 1018.76 1018.58 1018.32 1017.92 1017.96 1017.83 1018.13 1018.03 1017.58 1017.54 1017.78 1017.83 1018.06 1018.46 1018.40 1018.46 1018.39 1018.23 1018.30 1018.21 1018.14 1018.31 1017.84 1017.13 1016.91 1017.10 1016.98 1016.80 1016.51 1015.84 1015.55 1015.69 1015.84 1014.36 1013.13 1012.35 1011.39 1011.55 1011.50 1011.89 1012.53 1013.37 1014.32
1018.82 1018.71 1018.51 1018.18 1017.99 1017.74 1017.92 1017.68 1017.79 1018.07 1017.87 1018.01 1017.92 1018.04 1018.19 1018.27 1018.49 1018.59 1018.67 1018.46 1018.26 1017.99 1018.49 1018.32 1017.49 1017.71 1017.76 1017.74 1017.56 1017.21 1016.91 1016.14 1015.65 1016.16 1016.11 1014.38 1012.86 1011.75 1010.90 1011.05 1011.94 1012.45 1013.11 1014.11 1015.24
1018.91 1018.53 1018.22 1017.92 1017.75 1017.74 1017.76 1017.98 1018.16 1018.01 1017.77 1018.17 1018.14 1018.10 1018.42 1018.52 1018.55 1018.75 1018.84 1018.62 1018.32 1018.21 1018.37 1017.97 1018.01 1018.18 1018.09 1017.94 1017.95 1017.61 1017.30 1016.86 1016.79 1016.50 1016.16 1015.25 1012.38 1011.23 1011.19 1011.92 1012.67 1013.26 1014.09 1014.88 1015.76
1018.78 1018.50 1018.13 1017.84 1018.14 1017.57 1017.89 1018.31 1018.19 1018.21 1017.90 1018.15 1018.30 1018.45 1018.56 1018.47 1018.89 1019.00 1019.13 1019.04 1018.65 1018.48 1018.60 1018.36 1018.48 1018.44 1018.39 1018.41 1018.42 1018.30 1018.16 1018.05 1017.75 1017.40 1016.35 1016.18 1013.14 1011.01 1010.91 1011.77 1012.75 1013.64 1014.42 1015.30 1016.19
1018.73 1018.49 1017.99 1017.89 1017.80 1017.70 1018.18 1018.22 1018.25 1018.32 1017.96 1018.07 1018.13 1018.42 1018.57 1018.77 1019.01 1019.18 1019.44 1019.08 1018.71 1018.73 1019.08 1018.41 1018.60 1018.78 1018.98 1019.10 1019.09 1018.90 1018.92 1018.63 1018.42 1018.04 1017.73 1016.16 1015.17 1011.00 1011.70 1012.27 1013.41 1014.28 1015.12 1015.89 1016.68
1018.59 1018.45 1018.15 1017.87 1017.91 1018.26 1018.22 1018.25 1018.26 1018.27 1017.41 1017.70 1017.95 1018.24 1018.25 1018.66 1019.16 1019.29 1019.30 1019.43 1019.46 1019.16 1019.21 1019.08 1019.43 1019.56 1019.72 1019.92 1019.83 1019.69 1019.36 1018.95 1018.91 1018.38 1017.66 1016.48 1015.61 1012.01 1012.58 1013.67 1014.28 1015.13 1015.83 1016.56 1017.11
1018.53 1018.30 1018.20 1017.90 1018.05 1018.15 1018.26 1018.03 1018.38 1017.87 1017.32 1017.73 1017.64 1017.95 1018.23 1018.68 1019.01 1019.37 1019.35 1019.50 1019.49 1019.47 1019.33 1019.31 1019.67 1020.32 1020.65 1020.47 1020.26 1020.19 1019.71 1018.72 1018.47 1018.20 1017.11 1016.98 1016.25 1013.21 1013.92 1014.79 1015.54 1016.10 1016.43 1017.09 1017.42
1018.32 1017.93 1018.04 1017.92 1018.06 1018.31 1018.06 1017.91 1018.12 1017.22 1017.23 1017.49 1017.55 1018.17 1018.40 1018.76 1019.26 1019.52 1019.74 1019.68 1019.84 1019.58 1019.70 1020.19 1020.34 1020.82 1021.24 1021.25 1021.03 1020.75 1020.52 1019.72 1018.81 1018.29 1017.33 1017.19 1015.44 1014.24 1014.74 1015.63 1016.26 1016.85 1017.17 1017.10 1017.18
1017.89 1017.91 1018.03 1018.02 1017.99 1018.18 1017.97 1017.94 1017.23 1017.24 1017.19 1017.50 1018.04 1018.19 1018.79 1019.11 1019.31 1019.69 1019.61 1019.43 1019.70 1020.07 1020.59 1020.66 1020.69 1021.29 1021.69 1021.87 1021.94 1021.58 1021.12 1021.05 1020.16 1019.89 1018.40 1015.70 1014.86 1014.62 1015.14 1015.89 1016.46 1016.89 1016.91 1016.96 1017.29
1017.94 1017.77 1017.74 1018.10 1017.95 1017.90 1018.09 1017.97 1018.13 1017.91 1017.76 1018.07 1018.04 1018.33 1018.68 1019.26 1019.65 1019.64 1019.67 1019.91 1020.30 1020.82 1021.06 1021.07 1021.18 1021.33 1022.08 1022.38 1022.44 1022.05 1021.86 1021.43 1020.70 1019.50 1017.89 1015.92 1015.34 1014.78 1015.79 1016.49 1017.01 1016.92 1017.12 1017.17 1017.47
1017.93 1017.80 1017.72 1017.98 1018.04 1017.98 1018.20 1018.49 1018.53 1018.43 1018.33 1018.44 1018.48 1018.78 1019.19 1019.53 1019.35 1019.85 1020.45 1020.87 1020.97 1021.25 1021.24 1021.24 1021.50 1021.77 1022.11 1022.25 1021.89 1022.46 1021.95 1021.59 1021.07 1020.35 1018.96 1017.31 1015.52 1015.52 1016.38 1017.33 1017.66 1017.41 1017.26 1017.42 1017.87
1017.65 1017.93 1017.94 1018.03 1018.20 1017.97 1018.43 1018.48 1018.72 1018.92 1018.91 1018.96 1018.75 1018.82 1019.30 1019.83 1020.12 1020.64 1020.63 1020.98 1021.23 1021.54 1021.45 1021.52 1021.61 1021.50 1021.62 1022.14 1022.33 1022.01 1021.63 1021.30 1020.92 1020.73 1020.26 1019.38 1016.74 1016.51 1017.35 1018.05 1018.27 1017.62 1017.51 1017.69 1018.07
1017.59 1017.74 1017.92 1017.96 1017.70 1018.02 1018.55 1018.80 1018.96 1019.16 1019.07 1018.97 1019.10 1019.08 1019.71 1020.05 1021.04 1020.84 1020.86 1021.40 1021.45 1021.79 1021.82 1021.82 1021.71 1021.49 1021.72 1022.55 1022.37 1022.03 1021.79 1021.58 1021.48 1021.17 1020.19 1019.45 1017.09 1017.14 1017.97 1017.80 1017.65 1017.69 1017.58 1017.71 1018.02
1017.72 1018.02 1018.09 1017.85 1017.61 1017.79 1018.24 1018.67 1018.88 1019.04 1018.74 1018.79 1019.16 1019.57 1020.06 1020.48 1021.05 1020.87 1020.89 1021.45 1021.75 1022.10 1022.10 1022.19 1021.81 1021.47 1021.06 1021.00 1021.16 1021.63 1021.58 1021.68 1021.44 1021.04 1020.12 1019.09 1017.73 1017.12 1017.64 1017.83 1017.53 1017.40 1017.61 1017.64 1017.75
1017.50 1017.69 1018.12 1017.94 1017.75 1017.67 1017.61 1017.84 1018.25 1018.83 1018.92 1018.84 1019.38 1019.38 1019.70 1020.91 1020.98 1020.59 1020.83 1021.43 1021.89 1022.12 1022.33 1022.47 1022.06 1021.79 1021.26 1021.00 1021.13 1021.15 1021.26 1021.42 1021.24 1020.59 1020.44 1019.48 1019.21 1018.54 1018.60 1018.66 1018.57 1018.40 1017.91 1017.53 1017.43
1017.28 1017.50 1018.32 1018.06 1017.73 1017.49 1017.34 1017.35 1017.71 1018.20 1018.61 1019.02 1019.13 1019.18 1019.87 1020.54 1020.05 1020.34 1020.46 1021.11 1021.31 1022.25 1022.43 1022.61 1022.20 1022.08 1021.44 1020.95 1020.90 1021.04 1020.99 1021.05 1021.01 1020.82 1020.67 1020.26 1019.13 1019.03 1018.92 1018.75 1018.55 1018.17 1018.05 1017.79 1017.51
1017.07 1017.28 1017.40 1017.69 1017.68 1017.46 1016.88 1017.08 1017.17 1017.58 1018.55 1018.54 1018.58 1019.62 1020.05 1019.97 1020.38 1020.67 1020.74 1021.15 1021.28 1021.80 1022.23 1022.43 1022.44 1022.26 1021.40 1021.28 1021.27 1021.37 1020.99 1021.12 1021.05 1021.11 1020.81 1020.60 1019.72 1019.46 1018.70 1018.58 1018.35 1018.23 1018.41 1018.21 1017.73
Wind_Speed
6 7 7 8 8 8 9 10 9 8 7 6 5 4 6 7 5 1 3 3 3 6 1 1 2 3 2 3 2 1 6 8 7 5 1 3 6 3 2 4 4 5 3 4 9
4 6 7 8 8 9 10 10 10 9 7 7 5 6 6 7 1 5 1 3 2 6 1 3 3 3 3 3 3 6 5 5 3 2 3 2 5 3 5 7 8 8 5 5 13
4 5 6 7 8 9 10 11 10 9 8 6 5 3 4 5 2 2 4 3 2 2 2 1 3 2 3 3 4 3 6 1 2 6 4 4 5 4 5 12 12 13 12 12 14
4 4 5 7 8 9 10 11 11 10 7 6 4 2 3 1 3 1 5 5 3 0 2 2 2 4 4 5 3 6 5 5 3 1 2 4 3 5 11 10 3 7 5 14 15
2 2 4 5 8 10 10 11 10 9 7 5 2 2 1 2 3 2 4 5 2 1 2 1 2 3 3 2 3 7 4 3 5 6 7 6 11 10 16 15 10 3 7 11 13
4 5 3 5 9 10 11 11 11 6 4 2 1 2 1 2 2 2 2 1 5 2 2 2 1 1 1 2 5 1 7 9 9 10 8 7 7 4 13 5 14 14 13 11 12
3 5 5 6 9 11 12 11 11 2 0 0 1 1 1 3 1 2 2 2 2 1 2 1 1 2 2 2 2 3 8 9 10 4 6 2 9 17 17 6 6 7 9 11 11
6 6 6 7 8 10 11 11 7 1 2 2 1 1 2 0 1 2 1 3 3 3 3 2 0 2 1 1 2 4 3 6 4 3 2 4 10 3 4 7 11 12 11 9 10
5 7 7 8 8 11 10 10 3 1 2 2 1 3 3 2 2 2 3 2 2 2 3 2 1 1 2 3 5 4 9 6 5 1 1 7 8 2 1 4 8 8 8 8 8
9 7 8 9 9 10 10 4 1 2 2 2 2 3 3 3 2 1 3 3 2 2 1 1 1 3 3 5 5 5 8 6 7 1 4 10 19 20 22 16 19 16 14 12 10
6 7 8 10 10 11 4 2 3 3 2 1 3 2 3 2 1 3 3 2 1 1 4 2 5 6 4 6 5 7 9 15 14 6 7 17 19 19 22 17 18 16 12 11 8
7 9 11 10 9 7 1 3 1 3 2 1 1 2 1 1 3 2 2 3 2 3 2 3 6 3 2 3 6 8 11 14 10 2 5 12 21 24 22 15 9 5 2 3 4
11 12 12 9 7 1 2 4 2 1 1 2 1 2 2 2 2 3 1 2 2 4 4 5 3 3 3 4 5 7 8 9 8 8 5 11 12 6 2 0 2 2 4 5 3
13 14 11 7 3 4 3 3 2 2 1 4 3 1 1 2 3 2 2 1 2 2 3 4 1 1 2 3 3 5 3 5 6 5 6 4 10 9 4 2 2 2 4 4 5
13 15 10 6 0 3 4 3 3 2 4 5 3 1 1 1 4 3 1 0 2 4 3 2 1 1 2 2 1 2 2 3 2 4 5 5 6 4 0 6 7 7 6 4 4
13 14 10 2 1 1 3 4 3 2 8 4 3 4 4 2 2 1 1 2 2 2 1 3 1 1 1 1 1 0 4 5 1 2 5 1 5 3 4 2 5 4 4 4 3
11 12 4 1 1 5 3 2 2 5 2 5 4 4 3 3 3 1 1 2 2 3 1 2 2 2 2 3 1 1 4 3 3 3 3 1 4 7 2 1 2 4 5 4 4
10 10 2 0 3 4 3 2 5 1 4 2 4 5 3 3 2 1 3 5 3 2 2 2 4 2 2 1 2 1 3 4 6 3 3 3 7 2 1 2 3 5 7 6 5
9 1 1 2 3 2 1 3 5 4 5 8 4 4 3 2 2 4 2 2 3 2 3 4 3 3 3 2 1 4 4 3 4 1 3 3 4 1 2 2 2 3 6 10 8
3 2 2 2 3 1 2 3 2 2 4 2 4 1 5 5 5 2 1 2 3 3 4 3 4 1 2 2 2 2 4 3 3 4 4 3 4 3 3 1 3 6 12 10 8
2 2 2 1 2 2 4 4 3 0 1 3 4 4 2 4 3 4 2 3 2 4 2 4 2 3 2 5 4 4 4 4 3 2 3 4 1 2 3 1 6 12 11 10 8
2 2 2 3 3 1 4 5 4 3 1 1 1 4 5 4 4 5 5 2 4 3 4 2 2 4 1 1 3 2 3 5 4 5 0 2 6 3 1 3 7 13 11 9 7
2 2 2 2 5 4 2 1 3 6 5 5 3 2 1 6 4 5 5 3 4 3 4 6 3 4 4 3 2 5 4 2 3 1 7 4 3 2 2 8 5 9 10 8 7
1 3 0 2 1 6 6 5 6 2 3 3 4 4 3 3 4 6 5 3 5 3 5 3 3 5 5 2 3 4 6 7 6 4 3 8 9 8 13 19 17 16 14 13 9
2 2 1 5 4 5 4 7 8 6 3 4 3 5 6 6 5 4 4 5 5 3 2 3 5 2 8 12 9 11 11 11 12 9 9 1 7 13 17 13 11 13 12 12 9
2 3 2 1 2 9 9 7 9 4 8 5 4 8 7 5 3 7 7 5 4 5 5 4 3 0 5 4 5 6 11 13 16 12 9 10 18 2 6 8 8 11 11 12 11
1 1 1 2 3 6 10 8 9 9 7 4 10 7 7 10 3 3 4 4 4 7 9 6 3 1 4 2 6 4 3 4 2 2 4 6 3 8 12 12 11 10 10 10 11
Wind_Direction
23 24 23 26 16 14 9 6 357 352 346 338 332 328 325 332 308 213 72 353 325 331 326 153 129 108 122 106 103 244 237 248 251 207 275 151 216 160 338 246 215 200 260 81 148
26 19 14 14 10 3 2 5 355 345 339 326 326 324 331 342 80 70 344 331 358 354 94 152 133 147 126 132 152 224 238 243 266 236 256 217 234 201 220 209 226 218 197 147 160
9 12 8 8 4 358 356 354 353 345 329 319 318 315 331 323 205 86 323 337 8 36 67 101 135 163 176 170 177 186 252 299 258 263 273 264 246 220 229 239 226 220 201 180 181
348 1 4 3 358 352 351 347 347 344 336 319 306 303 331 224 299 61 332 335 347 87 151 139 162 166 192 201 171 244 252 254 297 326 239 246 298 247 232 249 48 217 165 178 194
270 322 350 345 350 345 343 340 342 336 331 321 302 336 209 166 113 355 349 351 352 50 53 146 189 171 222 202 196 235 264 245 259 262 249 262 252 268 259 258 252 215 191 199 207
264 269 314 333 338 336 331 329 331 328 329 325 319 319 203 214 94 353 342 3 31 41 56 7 139 182 172 234 234 319 277 274 270 256 239 242 261 224 250 302 247 232 229 224 222
340 32 21 9 360 336 326 323 325 311 302 202 26 309 205 91 113 43 60 64 24 19 108 62 78 225 142 214 341 307 297 289 246 251 238 227 245 236 256 237 250 233 239 234 227
72 37 5 14 348 336 324 324 322 273 148 136 48 247 104 54 135 63 45 90 65 52 76 94 19 103 285 109 228 268 248 277 97 173 95 234 268 250 340 241 249 246 244 230 226
63 38 1 1 346 328 320 319 302 188 135 74 216 274 140 135 161 72 36 97 68 61 59 83 64 52 163 241 262 214 277 251 295 201 220 226 288 311 208 219 261 242 235 233 237
39 2 341 337 327 326 321 290 86 128 90 100 92 194 177 151 109 55 53 74 92 110 151 136 109 217 178 204 265 290 273 255 270 61 240 263 264 277 280 270 265 266 262 250 248
14 340 329 321 317 331 334 153 193 179 181 299 99 84 132 106 186 53 25 116 123 169 242 54 243 234 287 253 304 294 276 277 276 274 286 272 282 282 279 272 267 273 261 260 264
351 333 318 301 302 325 229 235 77 35 208 62 119 109 107 204 141 64 313 164 183 157 177 208 243 51 294 241 243 249 272 277 282 192 255 289 287 278 276 284 279 300 146 121 120
347 335 326 297 304 177 142 147 128 223 247 113 108 147 154 200 135 104 318 137 144 169 208 243 81 316 256 257 251 254 252 282 287 315 253 299 267 277 145 215 150 148 96 90 95
344 340 332 323 240 152 147 158 162 255 253 159 188 113 146 151 100 16 13 313 147 220 201 256 55 272 257 265 235 272 3 290 286 308 293 339 295 277 308 328 145 126 131 93 95
334 333 336 312 260 186 108 153 148 232 276 117 144 126 115 53 117 67 356 133 197 166 206 79 193 67 296 343 249 311 315 280 266 270 309 185 247 262 235 96 90 77 72 68 71
331 326 327 216 103 91 148 143 205 100 244 144 134 161 136 84 71 90 116 64 28 158 218 281 40 352 15 30 309 303 277 234 142 242 247 21 268 303 34 73 106 81 73 46 28
308 310 313 311 242 160 162 180 134 212 35 173 158 167 117 118 104 18 154 146 241 216 62 332 99 94 344 231 143 292 282 284 238 199 290 144 242 300 337 201 273 341 339 328 315
304 307 1 42 149 168 185 116 218 21 197 126 124 115 167 142 109 143 197 184 143 54 107 280 200 176 31 23 11 85 303 290 288 292 333 155 239 161 132 234 263 274 272 294 325
311 172 227 185 165 197 179 181 225 187 145 159 118 155 152 172 172 207 201 114 89 175 233 199 236 127 64 74 292 127 207 25 281 91 265 256 253 249 50 69 43 296 324 343 343
292 185 172 165 158 162 104 261 246 233 126 106 190 241 163 176 175 114 12 89 145 212 251 171 282 92 107 166 81 282 128 197 194 268 264 250 261 193 177 149 310 329 333 337 341
249 194 129 198 221 75 209 223 221 108 5 147 157 139 156 183 148 133 189 134 198 151 214 157 256 130 165 199 169 162 208 213 304 239 283 309 29 212 130 53 332 318 333 333 324
226 232 126 203 164 157 175 181 163 171 35 110 111 140 167 154 153 198 200 248 144 164 178 149 163 257 249 20 300 267 246 204 243 167 143 332 275 57 91 272 289 313 318 319 313
216 151 144 260 194 169 134 122 160 161 197 174 156 90 59 166 202 196 182 116 126 168 180 174 200 285 182 184 185 230 192 197 89 92 210 222 246 146 204 309 326 287 308 310 320
195 178 236 242 56 146 161 190 180 194 180 145 111 105 124 180 253 173 180 151 146 197 192 204 221 242 261 29 100 207 200 206 208 207 172 239 294 295 341 334 328 330 325 311 300
210 204 9 198 201 209 193 168 159 167 211 183 165 200 157 202 202 173 144 141 174 202 214 202 249 214 264 266 257 255 251 203 210 219 234 301 263 311 307 314 310 308 311 319 318
185 169 152 149 228 206 209 202 185 142 165 205 208 193 168 203 248 185 156 187 193 168 188 193 260 188 274 309 219 250 246 243 224 231 252 294 294 344 302 285 303 324 330 335 334
216 100 216 124 159 178 214 188 190 148 197 236 195 153 204 220 166 71 91 58 163 173 194 181 238 302 265 312 291 250 238 188 191 267 211 230 275 323 318 321 317 313 324 323 324